Location: Arena
(42.5007°N, 9.4650°E)
Time: 02:11:59
(UTC+00:00)

Cosmos 1741 Rocket - Pass Details

Date: 09 April 2020
Orbit: 762 x 782 km, 74.0° (Epoch: 29 May)

Event Time Altitude Azimuth Distance (km) Brightness Sun altitude
Exits shadow 19:41:00 34° 131° (SE) 1,271 4.6 -18.6°
Maximum altitude 19:42:09 38° 102° (ESE) 1,177 4.5 -18.7°
Drops below altitude 10° 19:47:03 10° 35° (NE) 2,344 6.5 -19.5°
Sets 19:49:34 0° 28° (NNE) 3,276 7.3 -19.9°
